Location: ??????
(55.2000°N, 38.3000°E)
Time: 00:22:40
(UTC+00:00)

Cosmos 676 Rocket - Pass Details

Date: 15 November 2025
Orbit: 750 x 778 km, 74.0° (Epoch: 12 December)

Event Time Altitude Azimuth Distance (km) Brightness Sun altitude
Exits shadow 01:54:26 60° 345° (NNW) 875 4.1 -26.0°
Maximum altitude 01:55:24 83° 61° (ENE) 777 3.9 -25.9°
Drops below altitude 10° 02:00:36 10° 151° (SSE) 2,286 6.7 -25.2°
Sets 02:02:57 0° 152° (SSE) 3,203 7.5 -24.8°
